SCP
0 0 0 0 0 0 0 0 0 0 0 0 0 0 0 0 0 0 0 0 0 0 0 0 0 0 0 0 0 0 0 0 0 0 0 0 0 0 0 0 0 0 0
0 0 0 0 0 0 0 0 0 0 0 0 0 0 0 0 0 0 0 0 0 0 0 0 0 0 0 0 0 0 0 0 0 0 0 0 0 0 0 0 0 0 0
0 0 0 0 0 0 0 0 0 0 0 0 0 0 0 0 0 0 0 0 0 0 0 0 0 0 0 0 0 0 0 0 0 0 0 0 0 0 0 0 0 0 0
0 0 0 0 0 0 0 0 0 0 0 0 0 0 0 0 0 0 0 0 0 0 0 0 0 0 0 0 0 0 0 0 0 0 0 0 0 0 0 0 0 0 0
0 0 0 0 0 0 0 0 0 0 0 0 0 0 0 0 0 0 0 0 0 0 0 0 0 0 0 0 0 0 0 0 0 0 0 0 0 0 0 0 0 0 0
0 0 0 0 0 0 0 0 0 0 0 0 0 0 0 0 0 0 0 0 0 0 0 0 0 0 0 0 0 0 0 0 0 0 0 0 0 0 0 0 0 0 0
0 0 0 0 0 0 0 0 0 0 0 0 0 0 0 0 0 0 0 0 0 0 0 0 0 0 0 0 0 0 0 0 0 0 0 0 0 0 0 0 0 0 0
0 0 0 0 0 0 0 0 0 0 0 0 0 0 0 0 0 0 0 0 0 0 0 0 0 0 0 0 0 0 0 0 0 0 0 0 0 0 0 0 0 0 0
0 0 0 0 0 0 0 0 0 0 0 0 0 0 0 0 0 0 0 0 0 0 0 0 0 0 0 0 0 0 0 0 0 0 0 0 0 0 0 0 0 0 0
0 0 0 0 0 0 0 0 0 0 0 0 0 0 0 0 0 0 0 0 0 0 0 0 0 0 0 0 0 0 0 0 0 0 0 0 0 0 0 0 0 0 0
0 0 0 0 0 0 0 0 0 0 0 0 0 0 0 0 0 0 0 0 0 0 0 0 0 0 0 0 0 0 0 0 0 0 0 0 0 0 0 0 0 0 0
0 0 0 0 0 0 0 0 0 0 0 0 0 0 0 0 0 0 0 0 0 0 0 0 0 0 0 0 0 0 0 0 0 0 0 0 0 0 0 0 0 0 0
0 0 0 0 0 0 0 0 0 0 0 0 0 0 0 0 0 0 0 0 0 0 0 0 0 0 0 0 0 0 0 0 0 0 0 0 0 0 0 0 0 0 0
0 0 0 0 0 0 0 0 0 0 0 0 0 0 0 0 0 0 0 0 0 0 0 0 0 0 0 0 0 0 0 0 0 0 0 0 0 0 0 0 0 0 0
0 0 0 0 0 0 0 0 0 0 0 0 0 0 0 0 0 0 0 0 0 0 0 0 0 0 0 0 0 0 0 0 0 0 0 0 0 0 0 0 0 -0 -0
0 0 0 0 0 0 0 0 0 0 0 0 0 0 0 0 0 0 0 0 0 0 0 0 0 0 0 0 0 0 0 0 0 0 0 0 0 0 0 0 0 -0 -0
0 0 0 0 0 0 0 0 0 0 0 0 0 0 0 0 0 0 0 0 0 0 0 0 0 0 0 0 0 0 0 0 0 0 0 0 0 0 0 0 0 0 -0
0 0 0 0 0 0 0 0 0 0 0 0 0 0 0 0 0 0 0 0 0 0 0 0 0 0 0 0 0 0 0 0 0 0 0 0 0 0 0 0 0 0 0
0 0 0 0 0 0 0 0 0 0 0 0 0 0 0 0 0 0 0 0 0 0 0 0 0 0 0 0 0 0 0 0 0 0 0 0 0 0 0 0 0 0 0
0 0 0 0 0 0 0 0 0 0 0 0 0 0 0 0 0 0 0 0 0 0 0 0 0 0 0 0 0 0 0 0 0 0 0 0 0 0 0 0 0 0 0
0 0 0 0 0 0 0 0 0 0 0 0 0 0 0 0 0 0 0 0 0 0 0 0 0 0 0 0 0 0 0 0 0 0 0 0 0 0 0 0 0 0 0
0 0 0 0 0 0 0 0 0 0 0 0 0 0 0 0 0 0 0 0 0 0 0 0 0 0 0 0 0 0 0 0 0 0 0 0 0 0 0 0 0 0 0
0 0 0 0 0 0 0 0 0 0 0 0 0 0 0 0 0 0 0 0 0 0 0 0 0 0 0 0 0 0 0 0 0 0 0 0 0 0 0 0 0 0 0
0 0 0 0 0 0 0 0 0 0 0 0 0 0 0 0 0 0 0 0 0 0 0 0 0 0 0 0 0 0 0 0 0 0 0 0 0 0 0 0 0 0 0
0 0 0 0 0 0 0 0 0 0 0 0 0 0 0 0 0 0 0 0 0 0 0 0 0 0 0 0 0 0 0 0 0 0 0 0 0 0 0 0 0 0 0
0 0 0 0 0 0 0 0 0 0 0 0 0 0 0 0 0 0 0 0 0 0 0 0 0 0 0 0 0 0 0 0 0 0 0 0 0 0 0 0 0 0 0
Wind_Speed
4 5 9 10 12 11 10 9 9 9 10 10 11 11 11 10 9 8 8 9 11 12 12 12 11 11 11 11 11 11 12 12 13 13 12 12 13 13 13 12 11 8 13
6 7 10 10 11 11 10 9 9 9 9 10 10 10 10 9 8 7 7 9 10 11 11 11 11 11 11 11 11 10 10 10 10 10 11 10 12 13 13 12 12 9 13
6 9 9 10 11 10 9 9 9 9 9 9 9 9 8 8 7 7 8 9 10 10 9 9 9 10 10 11 11 10 9 9 8 8 8 5 6 11 11 11 11 13 13
5 8 9 11 11 11 10 9 9 9 8 8 8 8 7 6 6 7 8 9 9 9 8 8 8 9 9 10 10 9 9 8 8 7 5 4 4 8 10 10 10 11 12
5 6 8 12 11 11 11 10 10 9 9 8 8 7 6 5 5 6 7 8 8 7 7 7 7 8 8 9 8 8 7 8 9 8 5 5 4 7 9 9 9 9 10
4 5 6 11 11 11 11 11 11 10 10 9 9 8 7 6 5 5 7 7 7 6 5 6 6 7 7 8 7 7 6 8 8 5 5 5 4 6 8 7 7 8 8
4 4 4 9 10 10 11 11 10 10 9 9 8 8 7 6 6 7 7 7 6 5 4 4 5 6 6 6 6 6 5 8 6 5 5 4 4 7 7 7 5 6 7
3 3 3 8 8 9 10 10 9 9 8 8 8 8 7 7 7 7 7 6 4 3 2 3 4 5 6 6 6 5 5 6 6 5 4 4 4 5 5 6 6 5 6
2 1 1 3 5 7 9 9 9 8 8 7 7 7 6 7 8 8 6 5 3 1 1 2 4 4 5 6 6 6 6 7 5 3 3 3 4 3 3 4 4 4 4
6 4 3 2 3 4 5 8 9 8 8 7 7 6 6 7 8 8 7 4 3 1 0 2 3 3 5 6 6 6 7 6 4 3 2 4 5 2 2 3 3 3 3
8 7 5 4 3 4 4 5 7 8 8 8 6 7 5 3 4 5 6 5 3 2 1 2 2 4 7 7 8 7 5 2 2 2 2 5 5 3 2 2 3 3 2
11 10 7 5 5 4 4 3 3 3 4 4 3 4 2 3 3 4 6 5 3 3 2 2 3 7 6 4 5 6 3 3 2 2 3 6 5 4 4 3 3 3 3
8 9 9 7 6 5 4 3 2 2 2 3 3 3 2 3 2 2 2 3 3 4 3 3 5 3 3 2 2 3 3 3 2 2 4 7 6 6 6 5 4 4 3
9 10 10 8 6 5 4 3 2 2 2 2 2 3 3 2 3 3 2 3 3 3 4 3 2 2 2 2 2 2 3 2 2 2 4 8 8 8 8 7 6 5 5
10 12 11 9 6 3 3 2 2 2 1 2 1 2 3 3 3 3 3 2 3 3 4 4 4 3 2 1 1 1 3 3 4 3 3 9 10 9 9 9 8 7 6
12 12 11 10 7 3 0 1 1 1 0 1 1 2 3 2 3 3 3 3 3 3 3 4 4 4 2 1 1 1 2 2 3 4 4 6 10 11 10 10 10 9 8
11 11 11 10 10 8 5 5 4 4 3 3 3 4 3 1 1 2 2 2 2 2 2 2 3 3 3 2 2 1 1 2 3 4 4 3 5 9 11 10 9 9 9
10 10 11 10 12 13 11 10 9 9 10 9 9 9 11 8 5 2 1 1 1 1 1 1 2 1 2 2 1 1 2 2 3 3 3 3 3 4 7 12 11 9 10
9 9 11 12 12 12 13 13 13 12 13 11 11 11 13 14 12 8 6 5 4 2 2 1 1 1 1 1 2 2 2 3 4 4 4 4 4 4 4 8 12 12 11
8 9 11 12 11 8 8 10 11 13 12 11 12 13 15 13 14 11 8 9 7 5 4 3 3 3 2 2 2 3 3 4 4 5 5 4 4 4 4 4 5 7 12
11 12 13 13 12 8 6 6 8 9 9 10 11 14 15 15 14 13 9 10 9 7 6 5 3 3 3 3 2 3 3 4 5 4 3 3 4 4 4 4 4 4 5
10 10 11 12 11 10 6 5 5 5 7 8 9 13 15 15 14 12 12 10 10 8 9 8 5 3 3 3 3 3 5 5 4 2 2 3 3 2 4 4 4 5 4
10 10 9 10 11 11 8 6 6 5 5 7 10 10 13 14 14 13 13 11 10 9 9 9 7 5 3 2 1 2 3 4 5 3 2 2 3 3 4 5 6 6 6
7 7 8 10 12 11 9 11 14 12 10 6 5 6 9 12 13 13 12 12 10 9 9 9 8 5 4 3 2 0 2 2 3 6 4 3 3 4 5 5 5 6 6
5 6 7 9 12 11 11 11 12 11 7 5 5 8 8 9 11 11 11 10 10 9 10 10 9 8 6 4 3 3 2 2 3 4 7 5 4 3 4 5 5 6 6
5 6 6 10 11 9 10 11 12 11 8 9 9 8 6 6 7 10 9 9 8 8 8 8 8 8 7 6 5 3 3 3 3 4 6 8 7 5 5 4 5 6 6
Wind_Direction
210 190 194 172 165 159 150 140 129 120 116 113 110 108 106 105 103 101 98 95 88 80 72 64 59 55 55 57 61 60 58 56 55 55 58 70 77 70 61 53 48 45 55
167 170 188 176 172 166 158 148 140 133 127 121 115 111 109 106 103 99 99 96 89 80 70 60 54 49 46 45 46 50 52 52 54 57 56 57 72 71 63 54 50 49 51
152 164 177 177 175 169 161 155 151 146 139 132 126 121 116 112 107 104 103 101 94 82 72 61 52 46 42 38 36 38 41 43 53 66 60 44 63 75 69 61 54 50 48
157 165 173 177 176 171 165 161 159 155 149 143 136 130 125 120 117 113 107 101 94 82 72 63 53 45 39 36 33 32 32 42 58 69 55 40 40 76 73 67 61 56 51
157 168 174 176 178 174 170 168 168 165 162 157 151 145 140 134 130 124 115 103 93 82 73 66 54 44 37 33 32 29 33 59 66 65 57 44 32 66 70 66 67 64 57
160 169 175 180 182 179 177 177 178 176 174 171 166 161 157 152 145 134 123 108 94 82 71 66 54 43 35 31 32 30 41 74 68 60 54 44 34 60 64 63 68 70 68
157 166 178 185 188 185 184 186 187 187 185 183 180 175 170 164 152 139 126 112 98 79 59 60 54 45 35 31 33 33 57 83 76 64 51 38 43 61 57 54 58 72 72
157 168 181 193 196 193 191 193 193 194 195 195 193 189 183 174 161 149 138 128 110 77 36 46 52 45 33 29 31 33 73 82 77 67 51 27 29 58 53 48 54 66 71
40 42 239 203 204 203 200 200 200 201 203 205 205 201 194 182 170 159 150 146 137 106 14 53 64 44 31 29 28 35 70 81 73 58 44 7 356 46 47 38 39 50 62
21 4 333 279 224 211 209 208 208 209 212 216 218 216 210 195 179 164 153 153 159 158 57 91 84 45 41 33 26 39 62 62 57 47 22 347 1 16 32 20 12 15 27
5 356 341 303 262 233 218 212 211 217 219 221 226 230 223 192 167 160 161 164 159 135 119 121 109 72 63 35 23 31 40 37 44 29 359 342 358 344 346 347 340 337 337
346 340 339 314 277 252 229 209 208 209 218 217 215 223 192 161 165 168 173 168 149 118 95 121 100 84 69 37 11 13 6 5 15 356 334 340 340 322 303 303 310 310 308
329 333 336 324 295 261 238 208 192 194 210 216 212 204 171 155 149 154 145 154 136 116 89 70 78 85 78 58 22 0 348 351 342 333 328 329 324 311 297 286 285 289 290
341 340 334 326 307 273 248 222 194 183 201 214 207 187 167 157 158 160 171 167 153 143 139 126 128 124 98 67 37 357 344 337 325 323 315 322 317 305 295 284 274 271 272
352 346 340 334 323 288 249 225 193 188 210 231 218 198 187 180 178 170 179 180 176 161 161 157 157 160 156 60 24 5 336 330 323 319 319 321 318 307 294 285 276 265 262
354 347 344 351 349 350 83 128 100 105 207 268 269 252 220 198 182 174 178 182 191 187 177 167 165 165 170 176 285 316 315 318 319 317 314 318 319 317 308 292 282 273 265
350 351 360 7 17 37 54 61 57 50 41 21 2 354 345 318 176 164 172 192 203 175 154 138 147 147 162 179 245 281 298 305 302 303 307 308 312 314 315 310 304 294 281
356 3 12 22 33 48 56 57 55 49 46 37 28 25 23 21 28 56 58 18 60 98 117 135 134 179 200 206 237 276 299 299 290 285 285 287 294 301 310 309 313 312 303
2 10 22 28 37 50 61 63 60 55 49 42 36 33 30 31 31 36 32 24 32 43 44 58 56 14 287 275 274 275 272 269 272 276 270 265 266 277 290 303 310 315 309
9 23 31 35 34 42 58 64 61 55 50 46 42 36 35 34 34 37 38 29 27 29 24 22 28 29 10 349 312 283 268 259 257 254 256 259 260 267 278 290 305 310 306
23 31 33 38 31 37 46 52 56 53 46 46 44 39 39 37 36 38 35 32 29 34 28 23 22 19 15 6 333 314 298 262 258 267 275 284 290 298 301 297 301 301 306
26 29 37 39 39 42 51 61 76 80 58 54 47 43 39 39 37 38 36 34 29 31 30 25 23 16 15 19 359 335 326 329 341 319 287 260 275 292 288 284 283 281 285
31 27 40 43 46 44 48 69 74 63 57 47 41 42 38 40 41 40 38 37 32 32 28 21 17 19 1 1 22 348 334 319 322 310 324 304 281 271 266 264 262 260 262
27 26 43 52 54 49 53 70 76 76 71 51 45 46 43 41 40 38 37 37 36 33 28 20 18 10 10 358 349 5 236 266 296 309 309 303 288 274 276 277 272 266 258
34 41 48 61 60 54 60 69 78 78 76 64 51 48 42 38 38 35 36 35 33 30 26 22 19 19 16 5 347 326 308 261 228 266 294 304 306 278 270 263 262 264 261
48 52 57 71 65 58 67 70 78 82 78 68 54 47 38 32 32 31 32 31 30 26 22 17 15 18 15 5 353 342 328 311 305 282 288 300 294 278 267 252 250 254 252